View from above orbital plane
|
View from above satellite
|
Ground track
|
The orbit data is extracted from the following two-line orbital elements,
1 00053U 60009E 21107.26585955 -.00000103 00000-0 -18422-3 0 9995
2 00053 47.2789 42.0722 0098918 259.9971 98.9643 12.17254794705576
Epoch (UTC): | 17 April 2021 06:22:50 |
Eccentricity: | 0.0098918 |
inclination: | 47.2789° |
perigee height: | 1525 km |
apogee height: | 1683 km |
right ascension of ascending node: | 42.0722° |
argument of perigee: | 259.9971° |
revolutions per day: | 12.17254794 |
mean anomaly at epoch: | 98.9643° |
orbit number at epoch: | 70557 |
The dashed part of the orbit path shows where the satellite is in the earth's shadow,
|
|